Location: Unspecified
(0.0000°N, 0.0000°E)
Time: 19:59:01
(UTC+00:00)

USA 389 - Pass Details

Date: 24 June 2025
Orbit: 575 x 578 km, 70.0° (Epoch: 14 August)

Event Time Altitude Azimuth Distance (km) Brightness Sun altitude
Rises 20:07:54 0° 222° (SW) 2,784 ? -28.5°
Reaches altitude 10° 20:10:35 10° 239° (WSW) 1,882 ? -29.1°
Maximum altitude 20:13:42 20° 286° (WNW) 1,346 ? -29.8°
Drops below altitude 10° 20:16:48 10° 335° (NNW) 1,874 ? -30.5°
Sets 20:19:29 0° 352° (N) 2,768 ? -31.1°
